Weather History for Waukesha, WI

Change the Weather History Date:

Thursday, June 20, 2013

  Actual Average Record
Temperature  
Mean Temperature 66 °F -  
Max Temperature 80 °F 78 °F 99 °F (1953)
Min Temperature 51 °F 56 °F 42 °F (1948)
Growing Degree Days 16 (Base 50)    
Moisture  
Dew Point 47 °F    
Average Humidity 55    
Maximum Humidity 77    
Minimum Humidity 42    
Precipitation  
Precipitation 0.00 in - - ()
Sea Level Pressure  
Sea Level Pressure 30.14 in    
Wind  
Wind Speed 3 mph (SSE)    
Max Wind Speed 13 mph    
Max Gust Speed -    
Visibility 10 miles    
Events      
Averages and records for this station are not official NWS values.
T = Trace of Precipitation, MM = Missing Value Source: NWS Daily Summary

Daily Weather History Graph

Daily Weather History Graph

Search for Another Location

Airport:

Trip Planner

Search our weather history database for the weather conditions in past years. The results will help you decide how hot, cold, wet, or windy it might be!

Date:

Astronomy

Jun. 20, 2013 Rise Set
Actual Time 5:13 AM CDT 8:35 PM CDT
Civil Twilight 4:38 AM CDT 9:11 PM CDT
Nautical Twilight 3:52 AM CDT 9:57 PM CDT
Astronomical Twilight 2:54 AM CDT 10:54 PM CDT
Moon 5:35 PM CDT (6/20) 2:43 AM CDT (6/20)
Length of Visible Light 16h 32m
Length of Day
15h 22m
Waxing Gibbous, 89% of the Moon is Illuminated
Jun 20
Waxing Gibbous
Jun 23
Full
Jun 29
Last Quarter
Jul 8
New
Jul 15
First Quarter

Hourly Weather History & Observations

Time (CDT) Temp. Heat Index Dew Point Humidity Pressure Visibility Wind Dir Wind Speed Gust Speed Precip Events Conditions
12:15 AM 53.6 °F - 42.8 °F 67% 30.14 in 10.0 mi Calm Calm - N/A   Clear
12:35 AM 55.4 °F - 41.0 °F 58% 30.14 in 10.0 mi Calm Calm - N/A   Clear
12:55 AM 55.4 °F - 41.0 °F 58% 30.14 in 10.0 mi Calm Calm - N/A   Clear
1:15 AM 55.4 °F - 39.2 °F 54% 30.14 in 10.0 mi Calm Calm - N/A   Clear
1:35 AM 55.4 °F - 35.6 °F 47% 30.15 in 10.0 mi South 4.6 mph - N/A   Clear
1:55 AM 55.4 °F - 35.6 °F 47% 30.15 in 10.0 mi SSE 3.5 mph - N/A   Clear
2:15 AM 53.6 °F - 37.4 °F 54% 30.15 in 10.0 mi South 3.5 mph - N/A   Clear
2:35 AM 53.6 °F - 37.4 °F 54% 30.15 in 10.0 mi Calm Calm - N/A   Clear
2:55 AM 55.4 °F - 35.6 °F 47% 30.15 in 10.0 mi South 3.5 mph - N/A   Clear
3:15 AM 55.4 °F - 35.6 °F 47% 30.14 in 10.0 mi South 4.6 mph - N/A   Clear
3:35 AM 55.4 °F - 35.6 °F 47% 30.15 in 10.0 mi South 4.6 mph - N/A   Clear
3:55 AM 53.6 °F - 37.4 °F 54% 30.15 in 10.0 mi South 3.5 mph - N/A   Clear
4:15 AM 53.6 °F - 39.2 °F 58% 30.15 in 10.0 mi Calm Calm - N/A   Clear
4:35 AM 51.8 °F - 41.0 °F 67% 30.15 in 10.0 mi Calm Calm - N/A   Clear
4:55 AM 51.8 °F - 41.0 °F 67% 30.15 in 10.0 mi Calm Calm - N/A   Clear
5:15 AM 51.8 °F - 41.0 °F 67% 30.16 in 10.0 mi Calm Calm - N/A   Scattered Clouds
5:35 AM 53.6 °F - 41.0 °F 62% 30.16 in 10.0 mi Calm Calm - N/A   Mostly Cloudy
5:45 AM 53.6 °F - 46.4 °F 77% 30.16 in 10.0 mi Calm Calm - N/A   Mostly Cloudy
6:45 AM 60.8 °F - 42.8 °F 52% 30.17 in 10.0 mi South 4.6 mph - N/A   Mostly Cloudy
7:45 AM 62.6 °F - 46.4 °F 55% 30.17 in 10.0 mi SSE 5.8 mph - N/A   Scattered Clouds
8:45 AM 66.2 °F - 50.0 °F 56% 30.17 in 10.0 mi South 6.9 mph - N/A   Scattered Clouds
9:45 AM 69.8 °F - 55.4 °F 60% 30.18 in 10.0 mi South 5.8 mph - N/A   Scattered Clouds
11:45 AM 78.8 °F - 55.4 °F 44% 30.17 in 10.0 mi South 4.6 mph - N/A   Clear
12:45 PM 80.6 °F 80.8 °F 57.2 °F 45% 30.15 in 10.0 mi South 4.6 mph - N/A   Scattered Clouds
1:45 PM 80.6 °F 80.5 °F 55.4 °F 42% 30.14 in 10.0 mi SSE 8.1 mph - N/A   Scattered Clouds
2:45 PM 80.6 °F 81.1 °F 59.0 °F 48% 30.13 in 10.0 mi SE 6.9 mph - N/A   Scattered Clouds
3:45 PM 80.6 °F 81.1 °F 59.0 °F 48% 30.13 in 10.0 mi ESE 9.2 mph - N/A   Scattered Clouds
4:45 PM 80.6 °F 80.8 °F 57.2 °F 45% 30.12 in 10.0 mi SE 11.5 mph - N/A   Clear
5:45 PM 80.6 °F 80.8 °F 57.2 °F 45% 30.11 in 10.0 mi ESE 12.7 mph - N/A   Clear
6:45 PM 75.2 °F - 53.6 °F 47% 30.10 in 10.0 mi SE 9.2 mph - N/A   Clear
7:45 PM 73.4 °F - 55.4 °F 53% 30.11 in 10.0 mi SE 9.2 mph - N/A   Clear
8:45 PM 71.6 °F - 55.4 °F 57% 30.11 in 10.0 mi SE 6.9 mph - N/A   Clear
9:15 PM 69.8 °F - 53.6 °F 56% 30.12 in 10.0 mi ESE 5.8 mph - N/A   Clear
9:35 PM 68.0 °F - 53.6 °F 60% 30.13 in 10.0 mi ESE 4.6 mph - N/A   Clear
9:55 PM 68.0 °F - 53.6 °F 60% 30.13 in 10.0 mi SE 6.9 mph - N/A   Clear
10:15 PM 68.0 °F - 53.6 °F 60% 30.13 in 10.0 mi SE 6.9 mph - N/A   Clear
10:35 PM 68.0 °F - 51.8 °F 56% 30.13 in 10.0 mi ESE 8.1 mph - N/A   Clear
10:55 PM 68.0 °F - 51.8 °F 56% 30.13 in 10.0 mi SE 5.8 mph - N/A   Clear
11:15 PM 66.2 °F - 51.8 °F 60% 30.13 in 10.0 mi ESE 6.9 mph - N/A   Clear
11:35 PM 66.2 °F - 51.8 °F 60% 30.13 in 10.0 mi SE 6.9 mph - N/A   Clear
11:55 PM 66.2 °F - 51.8 °F 60% 30.13 in 10.0 mi SE 8.1 mph - N/A   Clear